EN

Hourly Weather Abbadia San Salvatore

Today, 3 December, Thursday

Time Temperature Precipitation Wind Pressure Humidity
00:00 +1°C° 0 mm 0 mps 663 mmHg 93%
01:00 0°C° 0 mm 0 mps 663 mmHg 92%
02:00 +1°C° 0 mm 1 mps 663 mmHg 92%
03:00 +1°C° 0 mm 1 mps 663 mmHg 92%
04:00 0°C° 0 mm 1 mps 663 mmHg 92%
05:00 +1°C° 0 mm 1 mps 663 mmHg 92%
06:00 +1°C° 0 mm 1 mps 663 mmHg 92%
07:00 +1°C° 0 mm 1 mps 663 mmHg 92%
08:00 +2°C° 0 mm 1 mps 664 mmHg 90%
09:00 +3°C° 0 mm 1 mps 664 mmHg 89%
10:00 +3°C° 0 mm 1 mps 664 mmHg 87%
11:00 +4°C° 0.1 mm 1 mps 664 mmHg 84%
12:00 +5°C° 0.1 mm 1 mps 664 mmHg 80%
13:00 +6°C° 0.1 mm 1 mps 664 mmHg 77%
14:00 +5°C° 0.2 mm 1 mps 664 mmHg 79%
15:00 +5°C° 0.2 mm 1 mps 664 mmHg 82%
16:00 +4°C° 0.2 mm 1 mps 663 mmHg 85%
17:00 +2°C° 0 mm 0 mps 663 mmHg 87%
18:00 +1°C° 0 mm 0 mps 663 mmHg 90%
19:00 0°C° 0 mm 0 mps 662 mmHg 92%
20:00 0°C° 0 mm 0 mps 662 mmHg 92%
21:00 0°C° 0 mm 0 mps 662 mmHg 93%
22:00 0°C° 0 mm 0 mps 662 mmHg 93%
23:00 0°C° 0 mm 0 mps 662 mmHg 93%

Tomorrow, 4 December, Friday

Time Temperature Precipitation Wind Pressure Humidity
00:00 -1°C° 0 mm 0 mps 661 mmHg 93%
01:00 0°C° 0 mm 1 mps 661 mmHg 94%
02:00 0°C° 0 mm 1 mps 661 mmHg 94%
03:00 0°C° 0 mm 1 mps 660 mmHg 94%
04:00 0°C° 0 mm 1 mps 660 mmHg 94%
05:00 0°C° 0 mm 1 mps 660 mmHg 93%
06:00 -2°C° 0 mm 2 mps 660 mmHg 93%
07:00 -2°C° 0 mm 2 mps 660 mmHg 93%
08:00 -1°C° 0 mm 2 mps 660 mmHg 92%
09:00 0°C° 0 mm 3 mps 660 mmHg 90%
10:00 +1°C° 0 mm 3 mps 660 mmHg 89%
11:00 +3°C° 0.1 mm 4 mps 660 mmHg 85%
12:00 +3°C° 0.1 mm 5 mps 660 mmHg 82%
13:00 +4°C° 0.1 mm 6 mps 660 mmHg 78%
14:00 +4°C° 0.1 mm 6 mps 660 mmHg 79%
15:00 +4°C° 0.1 mm 7 mps 659 mmHg 81%
16:00 +3°C° 0.1 mm 7 mps 659 mmHg 82%
17:00 +3°C° 0.1 mm 6 mps 659 mmHg 83%
18:00 +3°C° 0.1 mm 6 mps 659 mmHg 84%
19:00 +3°C° 0.1 mm 6 mps 659 mmHg 85%
20:00 +3°C° 0.4 mm 6 mps 659 mmHg 86%
21:00 +3°C° 0.4 mm 6 mps 659 mmHg 87%
22:00 +3°C° 0.4 mm 5 mps 659 mmHg 88%
23:00 +3°C° 0.3 mm 6 mps 659 mmHg 88%

Day after tomorrow, 5 December, Saturday

Time Temperature Precipitation Wind Pressure Humidity
00:00 +3°C° 0.3 mm 6 mps 658 mmHg 88%
01:00 +3°C° 0.3 mm 6 mps 658 mmHg 88%
02:00 +3°C° 1.1 mm 6 mps 658 mmHg 88%
03:00 +3°C° 1.1 mm 5 mps 658 mmHg 88%
04:00 +4°C° 1.1 mm 4 mps 658 mmHg 88%
05:00 +4°C° 1.2 mm 4 mps 658 mmHg 89%
06:00 +4°C° 1.2 mm 4 mps 658 mmHg 89%
07:00 +3°C° 1.2 mm 5 mps 657 mmHg 90%
08:00 +4°C° 0.5 mm 6 mps 658 mmHg 87%
09:00 +5°C° 0.5 mm 7 mps 658 mmHg 84%
10:00 +5°C° 0.5 mm 8 mps 658 mmHg 81%
11:00 +5°C° 1.5 mm 7 mps 658 mmHg 83%
12:00 +5°C° 1.5 mm 7 mps 658 mmHg 85%
13:00 +5°C° 1.5 mm 6 mps 658 mmHg 87%
14:00 +5°C° 0.7 mm 5 mps 658 mmHg 88%
15:00 +5°C° 0.7 mm 4 mps 658 mmHg 88%
16:00 +5°C° 0.7 mm 3 mps 658 mmHg 89%
17:00 +5°C° 2.8 mm 3 mps 658 mmHg 92%
18:00 +4°C° 2.8 mm 3 mps 658 mmHg 94%
19:00 +5°C° 2.8 mm 2 mps 658 mmHg 97%
20:00 +5°C° 1.7 mm 2 mps 659 mmHg 96%
21:00 +5°C° 1.7 mm 2 mps 659 mmHg 95%
22:00 +5°C° 1.7 mm 2 mps 659 mmHg 94%
23:00 +4°C° 1.7 mm 2 mps 659 mmHg 94%

6 December, Sunday

Time Temperature Precipitation Wind Pressure Humidity
00:00 +4°C° 1.7 mm 2 mps 659 mmHg 94%
01:00 +3°C° 1.7 mm 2 mps 659 mmHg 93%
02:00 +3°C° 1.6 mm 2 mps 659 mmHg 94%
03:00 +3°C° 1.6 mm 2 mps 658 mmHg 95%
04:00 +4°C° 1.6 mm 1 mps 658 mmHg 95%
05:00 +4°C° 1.4 mm 1 mps 658 mmHg 95%
06:00 +4°C° 1.4 mm 1 mps 657 mmHg 95%
07:00 +3°C° 1.4 mm 0 mps 657 mmHg 96%
08:00 +3°C° 0.9 mm 0 mps 657 mmHg 95%
09:00 +3°C° 0.9 mm 0 mps 657 mmHg 94%
10:00 +3°C° 0.9 mm 0 mps 657 mmHg 93%
11:00 +4°C° 0.7 mm 1 mps 657 mmHg 93%
12:00 +4°C° 0.7 mm 1 mps 657 mmHg 92%
13:00 +2°C° 0.7 mm 2 mps 656 mmHg 92%
14:00 +2°C° 1 mm 2 mps 657 mmHg 91%
15:00 +3°C° 1 mm 1 mps 657 mmHg 90%
16:00 +3°C° 1 mm 1 mps 657 mmHg 90%
17:00 +3°C° 0 mm 1 mps 657 mmHg 90%
18:00 +2°C° 0 mm 1 mps 658 mmHg 91%
19:00 +2°C° 0 mm 1 mps 658 mmHg 91%
20:00 +2°C° 0 mm 1 mps 659 mmHg 90%
21:00 -1°C° 0 mm 2 mps 659 mmHg 89%
22:00 -1°C° 0 mm 2 mps 659 mmHg 89%
23:00 -1°C° 0 mm 2 mps 659 mmHg 90%

7 December, Monday

Time Temperature Precipitation Wind Pressure Humidity
00:00 -1°C° 0 mm 2 mps 660 mmHg 90%
01:00 +1°C° 0 mm 2 mps 660 mmHg 91%
02:00 +1°C° 0.2 mm 2 mps 660 mmHg 92%
03:00 +1°C° 0.2 mm 2 mps 660 mmHg 93%
04:00 0°C° 0.2 mm 3 mps 660 mmHg 94%
05:00 +1°C° 0.6 mm 2 mps 660 mmHg 95%
06:00 +1°C° 0.6 mm 2 mps 661 mmHg 95%
07:00 +1°C° 0.6 mm 2 mps 661 mmHg 95%
08:00 +1°C° 0.4 mm 2 mps 661 mmHg 94%
09:00 +2°C° 0.4 mm 2 mps 661 mmHg 92%
10:00 +3°C° 0.4 mm 2 mps 662 mmHg 91%
11:00 +3°C° 0.5 mm 2 mps 662 mmHg 88%
12:00 +3°C° 0.5 mm 2 mps 662 mmHg 86%
13:00 +4°C° 0.5 mm 2 mps 662 mmHg 84%
14:00 +3°C° 0.7 mm 2 mps 662 mmHg 86%
15:00 +4°C° 0.7 mm 1 mps 662 mmHg 89%
16:00 +3°C° 0.7 mm 1 mps 662 mmHg 91%
17:00 +3°C° 0.3 mm 1 mps 662 mmHg 92%
18:00 +3°C° 0.3 mm 1 mps 662 mmHg 93%
19:00 +2°C° 0.3 mm 1 mps 662 mmHg 95%
20:00 +2°C° 0.1 mm 1 mps 662 mmHg 95%
21:00 +2°C° 0.1 mm 1 mps 662 mmHg 95%
22:00 +2°C° 0.1 mm 1 mps 662 mmHg 95%
23:00 0°C° 0.2 mm 0 mps 662 mmHg 95%

8 December, Tuesday

Time Temperature Precipitation Wind Pressure Humidity
00:00 0°C° 0.2 mm 0 mps 662 mmHg 95%
01:00 0°C° 0.2 mm 0 mps 662 mmHg 95%
02:00 0°C° 0.2 mm 0 mps 662 mmHg 95%
03:00 0°C° 0.2 mm 0 mps 662 mmHg 95%
04:00 0°C° 0.2 mm 0 mps 662 mmHg 95%
05:00 0°C° 0.1 mm 1 mps 662 mmHg 95%
06:00 0°C° 0.1 mm 1 mps 662 mmHg 95%
07:00 0°C° 0.1 mm 1 mps 662 mmHg 95%
08:00 +1°C° 0.1 mm 1 mps 662 mmHg 93%
09:00 +1°C° 0.1 mm 1 mps 663 mmHg 90%
10:00 +2°C° 0.1 mm 1 mps 663 mmHg 88%
11:00 +3°C° 0.3 mm 1 mps 663 mmHg 84%
12:00 +3°C° 0.3 mm 1 mps 663 mmHg 80%
13:00 +4°C° 0.3 mm 1 mps 664 mmHg 76%
14:00 +4°C° 0.3 mm 1 mps 663 mmHg 79%
15:00 +3°C° 0.3 mm 1 mps 663 mmHg 82%
16:00 +2°C° 0.3 mm 1 mps 663 mmHg 85%
17:00 +1°C° 0 mm 0 mps 663 mmHg 86%
18:00 0°C° 0 mm 0 mps 663 mmHg 87%
19:00 -1°C° 0 mm 0 mps 663 mmHg 88%
20:00 -1°C° 0 mm 0 mps 663 mmHg 88%
21:00 -1°C° 0 mm 0 mps 663 mmHg 88%
22:00 -1°C° 0 mm 1 mps 663 mmHg 88%
23:00 -1°C° 0 mm 1 mps 663 mmHg 89%
Show more